When you browse on this site, cookies collect data to enhance your experience and personalize the content and advertising you see.
Visit our Privacy Policy to learn more. By continuing to use the site, you agree to this use of cookies and data.

Hourly Weather Benguela

Today, 8 August, Saturday

Time Temperature Precipitation Wind Pressure Humidity
00:00 +21°C° 0 mm 2 mps 762 mmHg 88%
01:00 +21°C° 0 mm 1 mps 762 mmHg 92%
02:00 +20°C° 0 mm 2 mps 762 mmHg 93%
03:00 +19°C° 0 mm 2 mps 762 mmHg 93%
04:00 +19°C° 0 mm 2 mps 762 mmHg 94%
05:00 +21°C° 0 mm 1 mps 762 mmHg 92%
06:00 +21°C° 0 mm 1 mps 762 mmHg 91%
07:00 +20°C° 0 mm 0 mps 763 mmHg 89%
08:00 +24°C° 0 mm 1 mps 763 mmHg 79%
09:00 +26°C° 0 mm 1 mps 763 mmHg 69%
10:00 +28°C° 0 mm 2 mps 763 mmHg 60%
11:00 +28°C° 0 mm 3 mps 762 mmHg 59%
12:00 +29°C° 0 mm 3 mps 761 mmHg 59%
13:00 +29°C° 0 mm 4 mps 760 mmHg 58%
14:00 +29°C° 0 mm 4 mps 760 mmHg 60%
15:00 +28°C° 0 mm 4 mps 760 mmHg 62%
16:00 +28°C° 0 mm 4 mps 759 mmHg 64%
17:00 +26°C° 0 mm 4 mps 760 mmHg 70%
18:00 +25°C° 0 mm 3 mps 760 mmHg 76%
19:00 +24°C° 0 mm 3 mps 761 mmHg 82%
20:00 +24°C° 0 mm 3 mps 761 mmHg 81%
21:00 +24°C° 0 mm 2 mps 762 mmHg 80%
22:00 +24°C° 0 mm 2 mps 762 mmHg 79%
23:00 +23°C° 0 mm 2 mps 762 mmHg 83%

Tomorrow, 9 August, Sunday

Time Temperature Precipitation Wind Pressure Humidity
00:00 +21°C° 0 mm 2 mps 762 mmHg 88%
01:00 +19°C° 0 mm 2 mps 761 mmHg 92%
02:00 +19°C° 0 mm 2 mps 761 mmHg 93%
03:00 +19°C° 0 mm 2 mps 761 mmHg 93%
04:00 +19°C° 0 mm 3 mps 760 mmHg 93%
05:00 +19°C° 0 mm 2 mps 761 mmHg 92%
06:00 +20°C° 0 mm 2 mps 761 mmHg 91%
07:00 +21°C° 0 mm 1 mps 761 mmHg 89%
08:00 +24°C° 0 mm 1 mps 761 mmHg 78%
09:00 +26°C° 0 mm 2 mps 761 mmHg 66%
10:00 +28°C° 0 mm 2 mps 761 mmHg 55%
11:00 +29°C° 0 mm 3 mps 760 mmHg 56%
12:00 +29°C° 0 mm 3 mps 759 mmHg 57%
13:00 +29°C° 0 mm 4 mps 759 mmHg 58%
14:00 +28°C° 0 mm 4 mps 758 mmHg 62%
15:00 +27°C° 0 mm 4 mps 758 mmHg 65%
16:00 +26°C° 0 mm 3 mps 757 mmHg 69%
17:00 +25°C° 0 mm 3 mps 758 mmHg 73%
18:00 +24°C° 0 mm 3 mps 759 mmHg 78%
19:00 +23°C° 0 mm 2 mps 760 mmHg 82%
20:00 +23°C° 0 mm 2 mps 760 mmHg 81%
21:00 +23°C° 0 mm 1 mps 760 mmHg 81%
22:00 +23°C° 0 mm 1 mps 761 mmHg 80%
23:00 +22°C° 0 mm 1 mps 761 mmHg 84%

Day after tomorrow, 10 August, Monday

Time Temperature Precipitation Wind Pressure Humidity
00:00 +21°C° 0 mm 1 mps 760 mmHg 88%
01:00 +18°C° 0 mm 0 mps 760 mmHg 92%
02:00 +19°C° 0 mm 0 mps 760 mmHg 91%
03:00 +19°C° 0 mm 0 mps 760 mmHg 89%
04:00 +20°C° 0 mm 0 mps 760 mmHg 88%
05:00 +22°C° 0 mm 1 mps 760 mmHg 86%
06:00 +22°C° 0 mm 1 mps 761 mmHg 84%
07:00 +22°C° 0 mm 1 mps 761 mmHg 82%
08:00 +23°C° 0 mm 1 mps 761 mmHg 77%
09:00 +24°C° 0 mm 1 mps 761 mmHg 73%
10:00 +25°C° 0 mm 2 mps 761 mmHg 68%
11:00 +26°C° 0 mm 2 mps 760 mmHg 65%
12:00 +27°C° 0 mm 3 mps 759 mmHg 61%
13:00 +28°C° 0 mm 4 mps 758 mmHg 58%
14:00 +27°C° 0 mm 4 mps 758 mmHg 60%
15:00 +27°C° 0 mm 4 mps 757 mmHg 63%
16:00 +26°C° 0 mm 4 mps 757 mmHg 65%
17:00 +25°C° 0 mm 3 mps 758 mmHg 70%
18:00 +24°C° 0 mm 3 mps 759 mmHg 75%
19:00 +23°C° 0 mm 2 mps 760 mmHg 80%
20:00 +23°C° 0 mm 2 mps 760 mmHg 80%
21:00 +23°C° 0 mm 1 mps 761 mmHg 80%
22:00 +21°C° 0 mm 0 mps 761 mmHg 80%
23:00 +23°C° 0 mm 1 mps 761 mmHg 81%

11 August, Tuesday

Time Temperature Precipitation Wind Pressure Humidity
00:00 +22°C° 0 mm 1 mps 761 mmHg 81%
01:00 +22°C° 0 mm 1 mps 760 mmHg 82%
02:00 +21°C° 0 mm 1 mps 760 mmHg 85%
03:00 +21°C° 0 mm 1 mps 760 mmHg 88%
04:00 +20°C° 0 mm 1 mps 760 mmHg 90%
05:00 +20°C° 0 mm 1 mps 760 mmHg 88%
06:00 +19°C° 0 mm 0 mps 760 mmHg 86%
07:00 +19°C° 0 mm 0 mps 761 mmHg 84%
08:00 +23°C° 0 mm 1 mps 760 mmHg 76%
09:00 +25°C° 0 mm 2 mps 760 mmHg 69%
10:00 +27°C° 0 mm 2 mps 760 mmHg 61%
11:00 +27°C° 0 mm 3 mps 759 mmHg 59%
12:00 +28°C° 0 mm 4 mps 759 mmHg 58%
13:00 +29°C° 0 mm 4 mps 758 mmHg 57%
14:00 +28°C° 0 mm 4 mps 757 mmHg 59%
15:00 +27°C° 0 mm 4 mps 757 mmHg 61%
16:00 +27°C° 0 mm 4 mps 757 mmHg 64%
17:00 +26°C° 0 mm 3 mps 757 mmHg 69%
18:00 +24°C° 0 mm 2 mps 758 mmHg 74%
19:00 +23°C° 0 mm 2 mps 759 mmHg 80%
20:00 +23°C° 0 mm 2 mps 760 mmHg 79%
21:00 +23°C° 0 mm 1 mps 760 mmHg 79%
22:00 +23°C° 0 mm 1 mps 761 mmHg 79%
23:00 +22°C° 0 mm 1 mps 760 mmHg 82%

12 August, Wednesday

Time Temperature Precipitation Wind Pressure Humidity
00:00 +22°C° 0 mm 1 mps 760 mmHg 86%
01:00 +21°C° 0 mm 1 mps 760 mmHg 90%
02:00 +20°C° 0 mm 1 mps 760 mmHg 91%
03:00 +20°C° 0 mm 1 mps 759 mmHg 92%
04:00 +19°C° 0 mm 1 mps 759 mmHg 93%
05:00 +20°C° 0 mm 1 mps 760 mmHg 91%
06:00 +21°C° 0 mm 1 mps 760 mmHg 89%
07:00 +21°C° 0 mm 1 mps 760 mmHg 87%
08:00 +24°C° 0 mm 1 mps 760 mmHg 77%
09:00 +26°C° 0 mm 2 mps 760 mmHg 67%
10:00 +28°C° 0 mm 3 mps 760 mmHg 57%
11:00 +28°C° 0 mm 3 mps 760 mmHg 58%
12:00 +28°C° 0 mm 4 mps 759 mmHg 59%
13:00 +29°C° 0 mm 4 mps 758 mmHg 60%
14:00 +28°C° 0 mm 4 mps 758 mmHg 63%
15:00 +27°C° 0 mm 3 mps 757 mmHg 67%
16:00 +26°C° 0 mm 3 mps 757 mmHg 70%
17:00 +25°C° 0 mm 2 mps 758 mmHg 73%
18:00 +25°C° 0 mm 1 mps 758 mmHg 76%
19:00 +24°C° 0 mm 1 mps 759 mmHg 78%
20:00 +24°C° 0 mm 1 mps 760 mmHg 78%
21:00 +22°C° 0 mm 0 mps 760 mmHg 77%
22:00 +22°C° 0 mm 0 mps 761 mmHg 77%
23:00 +21°C° 0 mm 0 mps 761 mmHg 82%

13 August, Thursday

Time Temperature Precipitation Wind Pressure Humidity
00:00 +20°C° 0 mm 0 mps 760 mmHg 87%
01:00 +18°C° 0 mm 0 mps 760 mmHg 91%
02:00 +18°C° 0 mm 0 mps 760 mmHg 92%
03:00 +20°C° 0 mm 1 mps 760 mmHg 92%
04:00 +20°C° 0 mm 1 mps 759 mmHg 92%
05:00 +20°C° 0 mm 1 mps 760 mmHg 89%
06:00 +20°C° 0 mm 2 mps 760 mmHg 87%
07:00 +21°C° 0 mm 2 mps 760 mmHg 85%
08:00 +24°C° 0 mm 2 mps 760 mmHg 76%
09:00 +26°C° 0 mm 2 mps 760 mmHg 67%
10:00 +28°C° 0 mm 2 mps 760 mmHg 58%
11:00 +29°C° 0 mm 3 mps 759 mmHg 56%
12:00 +30°C° 0 mm 3 mps 758 mmHg 53%
13:00 +32°C° 0 mm 4 mps 757 mmHg 51%
14:00 +30°C° 0 mm 4 mps 757 mmHg 54%
15:00 +29°C° 0 mm 3 mps 757 mmHg 58%
16:00 +28°C° 0 mm 3 mps 756 mmHg 62%
17:00 +27°C° 0 mm 3 mps 757 mmHg 69%
18:00 +25°C° 0 mm 2 mps 758 mmHg 77%
19:00 +24°C° 0 mm 2 mps 759 mmHg 84%
20:00 +24°C° 0 mm 2 mps 759 mmHg 83%
21:00 +24°C° 0 mm 2 mps 760 mmHg 82%
22:00 +24°C° 0 mm 2 mps 761 mmHg 82%
23:00 +23°C° 0 mm 1 mps 760 mmHg 85%
Show more